COSMOS 2251 DEB, 34564

Orbit data source: Space-Track

COSMOS 2251 DEB, 34564 is space debris in LEO originally from a launch on Wed, 16 Jun 1993 UTC launched from the Plesetsk Missile And Space Complex (PKMTR). The debris from Iridium 33, an American commercial communications satellite, has been tracked extensively since its accidental collision with the defunct Russian satellite Cosmos 2251 in 2009. This event, occurring at high speed in low Earth orbit (LEO), generated thousands of pieces of space debris, significantly increasing the risk of further collisions. The Iridium 33 debris cloud has impacted space traffic management and orbital debris mitigation strategies, making it a subject of ongoing study in space situational awareness.

Loading next visibility...
Identifier
34564, 1993-036VA
Orbit
LEO
Country
Flag of CISCIS
Related business
Manufacturer
Unknown
Mission
Spacecraft
Bus & Motor
Unknown
Mass
Unknown
Launch date (UTC)
1993-06-16 (33 years ago)
Launch vehicle
Unknown
Launch site
Plesetsk Missile And Space Complex (PKMTR)
Object type
Payload
Rocket body
Debris
Shape & HBR
Unknown shape, 0.1 m
Radar Cross Section
Medium (>0.1 m² and <1 m²)

Expand to show TLE details & history
Last TLE update: 1 day ago

TLE from 1 day ago
0 COSMOS 2251 DEB
1 34564U 93036VA  26208.35575469  .00000636  00000-0  20571-3 0  9998
2 34564  74.0317 178.6014 0020098 233.6096 277.6264 14.41029009912704
Epoch: 2026-07-27T08:32Z
TLE epoch observation values (Epoch: 2026-07-27T08:32:17.205Z)
Latitude
27.82311°
Longitude
-83.14985°
Altitude
756.333 km
Speed
7.48 km/s
True Right ascension
23h 19m 50s
True Declination
27° 40' 53"
Sunlit
Object was in full shadow at epoch
Visualization orbit readout
Latitude
Unknown
Longitude
Unknown
Altitude
Unknown
Speed
Unknown
Apparent Right ascension
Unknown
Apparent Declination
Unknown
Sunlit
N/A
Visualization observer readout
Local Sidereal Time
09:33:52
Azimuth
Unknown
Elevation
Unknown
Doppler factor
Unknown
Orbital elements
Apogee altitude
767.051 km
Perigee altitude
738.388 km
Semi-major axis
7,130.856 km
Eccentricity
0.00201
Inclination
74.0317°
RAAN
178.6014°
Arg. of periapsis
233.6096°
True anomaly
277.39806°
Mean anomaly
277.6264°
Eccentric anomaly
277.51224°
Mean motion
3.60438 °/min
Orbital period
99.88 mins
BSTAR
0.00020571
Loading maneuver chart data...
Computing Atmospheric mass density...

Documentation

Showing up to 5 results
|